Weather History for Massena, NY

Change the Weather History Date:

Wednesday, June 26, 2013

  Actual Average Record
Temperature  
Mean Temperature 74 °F 67 °F  
Max Temperature 83 °F 78 °F 91 °F (1973)
Min Temperature 64 °F 56 °F 38 °F (1970)
Cooling Degree Days 9 4  
Month to date cooling degree days 65 58  
Year to date cooling degree days 88 72  
Since 1 June cooling degree days 65 58  
Growing Degree Days 23 (Base 50)    
Moisture  
Dew Point 66 °F    
Average Humidity 78    
Maximum Humidity 93    
Minimum Humidity 63    
Precipitation  
Precipitation 0.00 in 0.12 in 1.20 in (1983)
Month to date precipitation 6.28 3.04  
Year to date precipitation 14.58 14.97  
Sea Level Pressure  
Sea Level Pressure 29.75 in    
Wind  
Wind Speed 5 mph (SW)    
Max Wind Speed 16 mph    
Max Gust Speed 21 mph    
Visibility 9 miles    
Events      
T = Trace of Precipitation, MM = Missing Value Source: NWS Daily Summary

Daily Weather History Graph

Daily Weather History Graph

Search for Another Location

Airport:

Trip Planner

Search our weather history database for the weather conditions in past years. The results will help you decide how hot, cold, wet, or windy it might be!

Date:

Astronomy

Jun. 26, 2013 Rise Set
Actual Time 5:14 AM EDT 8:49 PM EDT
Civil Twilight 4:37 AM EDT 9:27 PM EDT
Nautical Twilight 3:47 AM EDT 10:16 PM EDT
Astronomical Twilight 2:42 AM EDT 11:21 PM EDT
Moon 10:59 PM EDT (6/26) 9:13 AM EDT (6/26)
Length of Visible Light 16h 50m
Length of Day
15h 35m
Waning Gibbous, 85% of the Moon is Illuminated
Jun 26
Waning Gibbous
Jun 30
Last Quarter
Jul 8
New
Jul 15
First Quarter
Jul 22
Full

Hourly Weather History & Observations

Time (EDT) Temp. Heat Index Dew Point Humidity Pressure Visibility Wind Dir Wind Speed Gust Speed Precip Events Conditions
12:53 AM 66.9 °F - 64.9 °F 93% 29.75 in 10.0 mi SW 4.6 mph - N/A   Clear
1:53 AM 66.9 °F - 64.9 °F 93% 29.75 in 10.0 mi Calm Calm - N/A   Clear
2:53 AM 66.9 °F - 64.9 °F 93% 29.75 in 10.0 mi Calm Calm - N/A   Partly Cloudy
3:53 AM 66.9 °F - 64.9 °F 93% 29.74 in 10.0 mi Calm Calm - N/A   Mostly Cloudy
4:53 AM 66.0 °F - 64.0 °F 93% 29.73 in 10.0 mi SSW 4.6 mph - N/A   Partly Cloudy
5:13 AM 66.2 °F - 64.4 °F 94% 29.73 in 10.0 mi SW 4.6 mph - N/A   Mostly Cloudy
5:53 AM 66.9 °F - 64.9 °F 93% 29.73 in 10.0 mi SSW 5.8 mph - N/A   Overcast
6:07 AM 68.0 °F - 64.4 °F 88% 29.74 in 9.0 mi SSW 6.9 mph - N/A   Mostly Cloudy
6:20 AM 68.0 °F - 66.2 °F 94% 29.75 in 8.0 mi SW 6.9 mph - N/A   Overcast
6:53 AM 69.1 °F - 66.0 °F 90% 29.75 in 6.0 mi SW 6.9 mph - N/A   Overcast
7:53 AM 69.1 °F - 66.9 °F 93% 29.77 in 5.0 mi SW 4.6 mph - N/A   Overcast
8:53 AM 71.1 °F - 68.0 °F 90% 29.75 in 7.0 mi SW 9.2 mph - N/A   Overcast
9:40 AM 71.6 °F - 68.0 °F 88% 29.76 in 9.0 mi SSW 9.2 mph - N/A   Overcast
9:53 AM 73.0 °F - 68.0 °F 84% 29.76 in 10.0 mi SSW 8.1 mph - N/A   Overcast
10:53 AM 72.0 °F - 66.9 °F 84% 29.77 in 10.0 mi SSW 10.4 mph - N/A   Overcast
11:37 AM 73.4 °F - 68.0 °F 83% 29.76 in 10.0 mi SSW 9.2 mph - N/A   Overcast
11:53 AM 75.0 °F - 68.0 °F 79% 29.75 in 10.0 mi SW 12.7 mph - N/A   Mostly Cloudy
12:53 PM 77.0 °F - 66.9 °F 71% 29.76 in 10.0 mi SW 9.2 mph - N/A   Mostly Cloudy
1:15 PM 78.8 °F - 66.2 °F 65% 29.76 in 10.0 mi WSW 11.5 mph 19.6 mph N/A   Mostly Cloudy
1:53 PM 79.0 °F - 66.9 °F 66% 29.75 in 10.0 mi SW 8.1 mph - N/A   Mostly Cloudy
2:53 PM 81.0 °F 83.8 °F 68.0 °F 65% 29.75 in 10.0 mi SW 4.6 mph - N/A   Mostly Cloudy
3:53 PM 81.0 °F 83.8 °F 68.0 °F 65% 29.75 in 10.0 mi WSW 8.1 mph - N/A   Partly Cloudy
4:53 PM 82.0 °F 84.9 °F 68.0 °F 62% 29.74 in 10.0 mi Variable 4.6 mph - N/A   Mostly Cloudy
5:53 PM 80.1 °F 82.7 °F 68.0 °F 67% 29.74 in 10.0 mi WSW 15.0 mph 20.7 mph N/A   Partly Cloudy
6:53 PM 79.0 °F - 68.0 °F 69% 29.74 in 10.0 mi SW 10.4 mph - N/A   Clear
7:53 PM 77.0 °F - 68.0 °F 74% 29.75 in 10.0 mi SSW 8.1 mph - N/A   Scattered Clouds
8:53 PM 73.0 °F - 66.9 °F 81% 29.75 in 10.0 mi Calm Calm - N/A   Partly Cloudy
9:53 PM 68.0 °F - 66.0 °F 93% 29.75 in 9.0 mi Calm Calm - N/A   Clear
10:53 PM 68.0 °F - 66.0 °F 93% 29.75 in 9.0 mi Calm Calm - N/A   Clear
11:28 PM 66.2 °F - 64.4 °F 94% 29.76 in 2.5 mi Calm Calm - N/A   Clear
11:35 PM 66.2 °F - 64.4 °F 94% 29.77 in 4.0 mi Calm Calm - N/A   Clear
11:44 PM 64.4 °F - 64.4 °F 100% 29.77 in 5.0 mi Calm Calm - N/A   Partly Cloudy
11:53 PM 66.9 °F - 64.9 °F 93% 29.77 in 5.0 mi Calm Calm - N/A   Clear